Location: Austin
(30.3000°N, 97.7500°W)
Time: 05:52:59
(UTC-06:00)

NOSS 2-1 (D) - Pass Details

Date: 05 February 2026
Orbit: 374 x 1674 km, 63.3° (Epoch: 14 February)

Event Time Altitude Azimuth Distance (km) Brightness Sun altitude
Rises 05:54:36 0° 200° (SSW) 3,361 7.2 -18.6°
Reaches altitude 10° 05:57:27 10° 196° (SSW) 2,212 6.3 -18.0°
Maximum altitude 06:02:13 57° 118° (ESE) 675 4.0 -17.0°
Drops below altitude 10° 06:05:45 10° 40° (NE) 1,649 6.1 -16.2°
Sets 06:07:37 0° 35° (NE) 2,424 7.0 -15.8°
